Showing default

OPS 2366 (TRANSIT 14), 2401

Orbit data source: Space-Track

OPS 2366 (TRANSIT 14), 2401 is a payload satellite owned by USN NAVAIR (US) in LEO that was launched on Thu, 18 Aug 1966 UTC via an SCOUT A launch vehicle from the Air Force Western Test Range (AFWTR). Payload-class satellites include a variety of spacecraft equipped with specific instruments for various scientific and technological missions. These include communications satellites like Starlink; space stations such as the ISS; scientific satellites like the Hubble; Earth observation satellites from companies like Planet Labs, Umbra, and HawkEye 360; GPS; miniature CubeSats for education and research; and military/defense satellites.

Loading next visibility...
Identifier
2401, 1966-076A
Orbit
LEO
Country
Flag of USUS
Related business
Manufacturer
APL
Mission
Spacecraft
Bus & Motor
TRANSIT 5, Unknown motor
Mass
~49 kg wet, ~49 kg dry
Launch date (UTC)
1966-08-18 (59 years ago)
Launch vehicle
SCOUT A
Launch site
Air Force Western Test Range (AFWTR)
Object type
Payload
Rocket body
Debris
Shape & HBR
Unknown
Radar Cross Section
Large (>1 m²)

Expand to show TLE details & history
Last TLE update: 15 hours ago

TLE from 15 hours ago
0 OPS 2366 (TRANSIT 14)
1 02401U 66076A   25308.42720323  .00000127  00000-0  16990-3 0  9991
2 02401  88.8443  92.1673 0031162 235.6457 178.5203 13.53891408920680
Epoch: 2025-11-04T10:15Z
TLE epoch observation values (Epoch: 2025-11-04T10:15:10.359Z)
Latitude
54.253°
Longitude
-103.9425°
Altitude
1,090.153 km
Speed
7.301 km/s
True Right ascension
06h 15m 03s
True Declination
54° 05' 49"
Sunlit
Object was in full shadow at epoch
Visualization orbit readout
Latitude
Unknown
Longitude
Unknown
Altitude
Unknown
Speed
Unknown
Apparent Right ascension
Unknown
Apparent Declination
Unknown
Sunlit
N/A
Visualization observer readout
Local Sidereal Time
20:42:50
Azimuth
Unknown
Elevation
Unknown
Doppler factor
Unknown
Orbital elements
Apogee altitude
1,078.186 km
Perigee altitude
1,031.86 km
Semi-major axis
7,433.16 km
Eccentricity
0.00312
Inclination
88.8443°
RAAN
92.1673°
Arg. of periapsis
235.6457°
True anomaly
178.52949°
Mean anomaly
178.5203°
Eccentric anomaly
178.5249°
Mean motion
3.38675 °/min
Orbital period
106.3 mins
BSTAR
0.0001699
Loading maneuver chart data...
Computing Atmospheric mass density...
Loading historical data...
Loading historical data...
Loading historical data...
Loading historical data...
Loading historical data...
Loading historical data...
Loading historical data...

Documentation

Showing up to 5 results
|